| time (UTC) | temp F | wind direction | speed knots | gust knots | rain 1hr in | rain 24hr in | rain mn in | humidity % | barometer mb |
| 20260507181518 | 63 | 360 | 3.5 | 10.4 | 0.00 | 0.00 | 0.00 | 59 | 1017.0 |
| 20260507180033 | 62 | 360 | 2.6 | 9.6 | 0.00 | 0.00 | 0.00 | 57 | 1017.1 |
| 20260507174557 | 63 | 360 | 4.3 | 12.2 | 0.00 | 0.00 | 0.00 | 60 | 1017.4 |
| 20260507173132 | 62 | 360 | 2.6 | 8.7 | 0.00 | 0.00 | 0.00 | 61 | 1017.5 |
| 20260507171531 | 61 | 360 | 4.3 | 11.3 | 0.00 | 0.00 | 0.00 | 59 | 1017.7 |
| 20260507170033 | 62 | 360 | 5.2 | 11.3 | 0.00 | 0.00 | 0.00 | 61 | 1018.1 |
| 20260507164555 | 61 | 360 | 2.6 | 9.6 | 0.00 | 0.00 | 0.00 | 60 | 1018.2 |
| 20260507163002 | 62 | 360 | 5.2 | 10.4 | 0.00 | 0.00 | 0.00 | 62 | 1018.4 |
| 20260507161529 | 61 | 360 | 5.2 | 10.4 | 0.00 | 0.00 | 0.00 | 58 | 1018.3 |
| 20260507160040 | 60 | 360 | 3.5 | 7.0 | 0.00 | 0.00 | 0.00 | 60 | 1018.5 |
| 20260507154552 | 60 | 360 | 3.5 | 8.7 | 0.00 | 0.00 | 0.00 | 60 | 1018.6 |
| 20260507153012 | 60 | 360 | 2.6 | 7.0 | 0.00 | 0.00 | 0.00 | 63 | 1018.6 |
| 20260507151533 | 59 | 360 | 2.6 | 5.2 | 0.00 | 0.00 | 0.00 | 66 | 1018.8 |
| 20260507150047 | 57 | 360 | 2.6 | 7.8 | 0.00 | 0.00 | 0.00 | 66 | 1018.9 |
| 20260507144601 | 57 | 360 | 3.5 | 8.7 | 0.00 | 0.00 | 0.00 | 67 | 1019.1 |
| 20260507143017 | 56 | 360 | 1.7 | 6.1 | 0.00 | 0.00 | 0.00 | 69 | 1019.1 |
| 20260507141523 | 55 | 360 | 2.6 | 7.0 | 0.00 | 0.00 | 0.00 | 71 | 1019.2 |
| 20260507140041 | 54 | 360 | 0.9 | 8.7 | 0.00 | 0.00 | 0.00 | 73 | 1019.2 |
| 20260507134602 | 52 | 360 | 1.7 | 5.2 | 0.00 | 0.00 | 0.00 | 75 | 1019.3 |
| 20260507133017 | 50 | 360 | 0.9 | 4.3 | 0.00 | 0.00 | 0.00 | 77 | 1019.2 |
| 20260507131531 | 49 | 360 | 1.7 | 5.2 | 0.00 | 0.00 | 0.00 | 78 | 1019.5 |
| 20260507130045 | 47 | 360 | 1.7 | 2.6 | 0.00 | 0.00 | 0.00 | 80 | 1019.7 |
| 20260507124556 | 46 | 360 | 0.9 | 3.5 | 0.00 | 0.00 | 0.00 | 80 | 1019.6 |
| 20260507123013 | 45 | 360 | 0.9 | 3.5 | 0.00 | 0.00 | 0.00 | 80 | 1019.7 |
| 20260507121518 | 45 | 360 | 0.9 | 2.6 | 0.00 | 0.00 | 0.00 | 79 | 1019.6 |
| 20260507120044 | 44 | 360 | 0.9 | 1.7 | 0.00 | 0.00 | 0.00 | 79 | 1019.5 |
| 20260507114602 | 43 | 360 | 0.9 | 2.6 | 0.00 | 0.00 | 0.00 | 79 | 1019.5 |
| 20260507113033 | 43 | 360 | 0.9 | 1.7 | 0.00 | 0.00 | 0.00 | 79 | 1019.5 |
| 20260507111520 | 43 | 360 | 0.9 | 1.7 | 0.00 | 0.00 | 0.00 | 79 | 1019.4 |
| 20260507110037 | 43 | 360 | 0.9 | 1.7 | 0.00 | 0.00 | 0.00 | 79 | 1019.4 |
| 20260507104559 | 43 | 360 | 0.9 | 1.7 | 0.00 | 0.00 | 0.00 | 79 | 1019.4 |
| 20260507103018 | 43 | 360 | 0.0 | 0.9 | 0.00 | 0.00 | 0.00 | 80 | 1019.5 |
| 20260507101535 | 43 | 360 | 0.0 | 2.6 | 0.00 | 0.00 | 0.00 | 78 | 1019.4 |
| 20260507100051 | 44 | 360 | 0.9 | 1.7 | 0.00 | 0.00 | 0.00 | 77 | 1019.4 |
| 20260507094502 | 44 | 360 | 0.9 | 2.6 | 0.00 | 0.00 | 0.00 | 77 | 1019.6 |
| 20260507093021 | 44 | 360 | 0.9 | 1.7 | 0.00 | 0.00 | 0.00 | 76 | 1019.7 |
| 20260507091542 | 44 | 360 | 0.9 | 1.7 | 0.00 | 0.00 | 0.00 | 76 | 1019.7 |
| 20260507090059 | 45 | 360 | 0.9 | 1.7 | 0.00 | 0.00 | 0.00 | 75 | 1019.7 |
| 20260507084518 | 45 | 360 | 0.9 | 1.7 | 0.00 | 0.00 | 0.00 | 75 | 1019.7 |
| 20260507083033 | 45 | 360 | 0.9 | 1.7 | 0.00 | 0.00 | 0.00 | 74 | 1019.8 |
| 20260507081554 | 45 | 360 | 0.0 | 1.7 | 0.00 | 0.00 | 0.00 | 73 | 1019.9 |
| 20260507080003 | 45 | 360 | 0.0 | 0.0 | 0.00 | 0.00 | 0.00 | 74 | 1019.7 |
| 20260507074528 | 46 | 360 | 0.0 | 0.9 | 0.00 | 0.00 | 0.00 | 73 | 1019.8 |
| 20260507073029 | 46 | 360 | 0.0 | 1.7 | 0.00 | 0.00 | 0.00 | 72 | 1020.0 |
| 20260507071544 | 46 | 360 | 0.9 | 1.7 | 0.00 | 0.00 | 0.00 | 72 | 1020.1 |
| 20260507070101 | 47 | 360 | 0.0 | 0.9 | 0.00 | 0.00 | 0.00 | 72 | 1020.2 |
| 20260507064514 | 47 | 360 | 0.9 | 1.7 | 0.00 | 0.00 | 0.00 | 71 | 1020.4 |
| 20260507063046 | 47 | 360 | 0.0 | 1.7 | 0.00 | 0.00 | 0.00 | 74 | 1020.5 |
| 20260507061555 | 47 | 360 | 0.0 | 0.9 | 0.00 | 0.00 | 0.00 | 74 | 1020.4 |
| 20260507060013 | 47 | 360 | 0.0 | 0.9 | 0.00 | 0.00 | 0.00 | 73 | 1020.6 |
| 20260507054528 | 47 | 360 | 0.0 | 1.7 | 0.00 | 0.00 | 0.00 | 73 | 1020.5 |
| 20260507053038 | 47 | 360 | 0.0 | 1.7 | 0.00 | 0.00 | 0.00 | 72 | 1020.5 |
| 20260507051553 | 47 | 360 | 0.0 | 0.9 | 0.00 | 0.00 | 0.00 | 72 | 1020.5 |
| 20260507050100 | 47 | 360 | 0.0 | 1.7 | 0.00 | 0.00 | 0.00 | 71 | 1020.6 |
| 20260507044600 | 46 | 360 | 0.0 | 0.9 | 0.00 | 0.00 | 0.00 | 72 | 1020.4 |
| 20260507043019 | 46 | 360 | 0.0 | 0.9 | 0.00 | 0.00 | 0.00 | 71 | 1020.6 |
| 20260507041542 | 45 | 360 | 0.0 | 1.7 | 0.00 | 0.00 | 0.00 | 71 | 1020.7 |
| 20260507040105 | 45 | 360 | 0.0 | 0.0 | 0.00 | 0.00 | 0.00 | 70 | 1020.8 |
| 20260507034505 | 45 | 360 | 0.0 | 0.0 | 0.00 | 0.00 | 0.00 | 67 | 1020.7 |
| 20260507033019 | 46 | 360 | 0.0 | 0.0 | 0.00 | 0.00 | 0.00 | 68 | 1020.7 |
| 20260507031531 | 47 | 360 | 0.0 | 0.0 | 0.00 | 0.00 | 0.00 | 67 | 1020.8 |
| 20260507030045 | 47 | 360 | 0.0 | 0.0 | 0.00 | 0.00 | 0.00 | 64 | 1020.7 |
| 20260507024501 | 48 | 360 | 0.0 | 0.0 | 0.00 | 0.00 | 0.00 | 60 | 1020.5 |
| 20260507023015 | 49 | 360 | 0.0 | 0.0 | 0.00 | 0.00 | 0.00 | 59 | 1020.5 |
| 20260507021521 | 51 | 360 | 0.0 | 0.0 | 0.00 | 0.00 | 0.00 | 60 | 1020.4 |
| 20260507020044 | 51 | 360 | 0.0 | 0.0 | 0.00 | 0.00 | 0.00 | 52 | 1020.3 |
| 20260507014554 | 53 | 360 | 0.0 | 0.0 | 0.00 | 0.00 | 0.00 | 54 | 1020.3 |
| 20260507013013 | 54 | 360 | 0.0 | 0.9 | 0.00 | 0.00 | 0.00 | 47 | 1020.0 |
| 20260507011521 | 55 | 360 | 0.0 | 0.9 | 0.00 | 0.00 | 0.00 | 46 | 1019.9 |
| 20260507010041 | 56 | 360 | 0.0 | 2.6 | 0.00 | 0.00 | 0.00 | 46 | 1019.9 |
| 20260507004559 | 56 | 360 | 0.9 | 3.5 | 0.00 | 0.00 | 0.00 | 43 | 1019.9 |
| 20260507004501 | 56 | 360 | 0.9 | 3.5 | 0.00 | 0.00 | 0.00 | 44 | 1019.9 |
| 20260507003020 | 57 | 360 | 0.9 | 2.6 | 0.00 | 0.00 | 0.00 | 43 | 1019.8 |
| 20260507001553 | 57 | 360 | 1.7 | 4.3 | 0.00 | 0.00 | 0.00 | 41 | 1019.9 |
| 20260507000057 | 57 | 360 | 2.6 | 5.2 | 0.00 | 0.00 | 0.00 | 42 | 1019.9 |
| 20260506234522 | 58 | 360 | 3.5 | 7.8 | 0.00 | 0.00 | 0.00 | 42 | 1019.9 |
| 20260506233019 | 58 | 360 | 1.7 | 4.3 | 0.00 | 0.00 | 0.00 | 42 | 1019.8 |
| 20260506231539 | 58 | 360 | 0.9 | 6.1 | 0.00 | 0.00 | 0.00 | 41 | 1019.8 |
| 20260506230047 | 58 | 360 | 2.6 | 8.7 | 0.00 | 0.00 | 0.00 | 40 | 1019.9 |
| 20260506224522 | 58 | 360 | 4.3 | 10.4 | 0.00 | 0.00 | 0.00 | 43 | 1019.9 |
| 20260506223022 | 58 | 360 | 4.3 | 9.6 | 0.00 | 0.00 | 0.00 | 40 | 1020.0 |
| 20260506221538 | 58 | 360 | 2.6 | 6.1 | 0.00 | 0.00 | 0.00 | 40 | 1020.0 |
| 20260506220105 | 58 | 360 | 1.7 | 4.3 | 0.00 | 0.00 | 0.00 | 44 | 1020.2 |
| 20260506214509 | 58 | 360 | 3.5 | 12.2 | 0.00 | 0.00 | 0.00 | 41 | 1020.3 |
| 20260506213027 | 58 | 360 | 2.6 | 6.1 | 0.00 | 0.00 | 0.00 | 42 | 1020.3 |
| 20260506211556 | 58 | 360 | 3.5 | 11.3 | 0.00 | 0.00 | 0.00 | 47 | 1020.5 |
| 20260506210010 | 57 | 360 | 4.3 | 10.4 | 0.00 | 0.00 | 0.00 | 43 | 1020.7 |
| 20260506204525 | 58 | 360 | 3.5 | 7.8 | 0.00 | 0.00 | 0.00 | 44 | 1020.9 |
| 20260506203033 | 57 | 360 | 0.9 | 6.1 | 0.00 | 0.00 | 0.00 | 45 | 1021.0 |
| 20260506201553 | 57 | 360 | 2.6 | 9.6 | 0.00 | 0.00 | 0.00 | 44 | 1021.3 |
| 20260506200009 | 57 | 360 | 1.7 | 5.2 | 0.00 | 0.00 | 0.00 | 42 | 1021.4 |
| 20260506194532 | 57 | 360 | 1.7 | 8.7 | 0.00 | 0.00 | 0.00 | 48 | 1021.5 |
| 20260506193032 | 56 | 360 | 1.7 | 6.1 | 0.00 | 0.00 | 0.00 | 41 | 1021.6 |
| 20260506191553 | 56 | 360 | 1.7 | 8.7 | 0.00 | 0.00 | 0.00 | 42 | 1021.7 |
| 20260506190012 | 56 | 360 | 5.2 | 11.3 | 0.00 | 0.00 | 0.00 | 45 | 1021.9 |
| 20260506184527 | 55 | 360 | 2.6 | 10.4 | 0.00 | 0.01 | 0.00 | 44 | 1021.9 |
| 20260506183059 | 55 | 360 | 2.6 | 7.0 | 0.00 | 0.01 | 0.00 | 46 | 1022.1 |